• In Austria
  • List of Countries
  • For 7 days
  • Water Temperature
  • Satellite Maps
  • Weather Map
  • News
  • Weather Widgets
  • user-avatar
    Login

    Hourly Weather Rawson

    Today, 16 July, Monday

    Time Temperature Precipitation Wind Pressure Humidity
    00:00 +4°C° 0 mm 1 mps 768 mmHg 72%
    01:00 +4°C° 0 mm 1 mps 768 mmHg 73%
    02:00 +4°C° 0 mm 1 mps 768 mmHg 74%
    03:00 +4°C° 0 mm 1 mps 768 mmHg 74%
    04:00 +4°C° 0 mm 1 mps 768 mmHg 73%
    05:00 +3°C° 0 mm 2 mps 768 mmHg 73%
    06:00 +3°C° 0 mm 2 mps 768 mmHg 73%
    07:00 +3°C° 0 mm 2 mps 768 mmHg 74%
    08:00 +2°C° 0 mm 3 mps 769 mmHg 74%
    09:00 +4°C° 0 mm 3 mps 769 mmHg 70%
    10:00 +5°C° 0 mm 4 mps 769 mmHg 67%
    11:00 +7°C° 0 mm 4 mps 769 mmHg 63%
    12:00 +8°C° 0 mm 4 mps 769 mmHg 60%
    13:00 +10°C° 0 mm 4 mps 768 mmHg 57%
    14:00 +9°C° 0 mm 5 mps 768 mmHg 54%
    15:00 +9°C° 0 mm 5 mps 768 mmHg 56%
    16:00 +8°C° 0 mm 5 mps 768 mmHg 59%
    17:00 +8°C° 0 mm 5 mps 768 mmHg 62%
    18:00 +8°C° 0 mm 5 mps 768 mmHg 65%
    19:00 +7°C° 0 mm 6 mps 769 mmHg 68%
    20:00 +7°C° 0 mm 6 mps 769 mmHg 72%
    21:00 +5°C° 0 mm 6 mps 769 mmHg 73%
    22:00 +5°C° 0 mm 6 mps 769 mmHg 75%
    23:00 +5°C° 0 mm 6 mps 769 mmHg 77%

    Tomorrow, 17 July, Tuesday

    Time Temperature Precipitation Wind Pressure Humidity
    00:00 +5°C° 0.3 mm 6 mps 769 mmHg 77%
    01:00 +6°C° 0.3 mm 5 mps 769 mmHg 77%
    02:00 +6°C° 0.3 mm 5 mps 769 mmHg 77%
    03:00 +6°C° 0 mm 5 mps 769 mmHg 78%
    04:00 +5°C° 0 mm 5 mps 768 mmHg 78%
    05:00 +5°C° 0 mm 4 mps 768 mmHg 78%
    06:00 +5°C° 0 mm 4 mps 768 mmHg 80%
    07:00 +5°C° 0 mm 4 mps 768 mmHg 82%
    08:00 +5°C° 0 mm 4 mps 768 mmHg 83%
    09:00 +6°C° 0.1 mm 4 mps 768 mmHg 78%
    10:00 +7°C° 0.1 mm 4 mps 768 mmHg 74%
    11:00 +8°C° 0.1 mm 4 mps 769 mmHg 69%
    12:00 +10°C° 0.1 mm 4 mps 768 mmHg 67%
    13:00 +10°C° 0.1 mm 4 mps 768 mmHg 66%
    14:00 +11°C° 0.1 mm 4 mps 768 mmHg 64%
    15:00 +10°C° 0.3 mm 4 mps 768 mmHg 68%
    16:00 +10°C° 0.3 mm 3 mps 768 mmHg 71%
    17:00 +9°C° 0.3 mm 3 mps 768 mmHg 75%
    18:00 +9°C° 0.3 mm 3 mps 768 mmHg 77%
    19:00 +8°C° 0.3 mm 3 mps 768 mmHg 80%
    20:00 +8°C° 0.3 mm 3 mps 768 mmHg 82%
    21:00 +7°C° 0.1 mm 2 mps 768 mmHg 84%
    22:00 +7°C° 0.1 mm 2 mps 769 mmHg 86%
    23:00 +7°C° 0.1 mm 2 mps 769 mmHg 88%

    Day after tomorrow, 18 July, Wednesday

    Time Temperature Precipitation Wind Pressure Humidity
    00:00 +7°C° 0.1 mm 2 mps 769 mmHg 88%
    01:00 +6°C° 0.1 mm 2 mps 769 mmHg 88%
    02:00 +5°C° 0.1 mm 3 mps 769 mmHg 88%
    03:00 +5°C° 0.1 mm 3 mps 769 mmHg 89%
    04:00 +5°C° 0.1 mm 4 mps 768 mmHg 90%
    05:00 +5°C° 0.1 mm 4 mps 768 mmHg 90%
    06:00 +5°C° 0.2 mm 5 mps 769 mmHg 91%
    07:00 +5°C° 0.2 mm 5 mps 769 mmHg 91%
    08:00 +5°C° 0.2 mm 5 mps 770 mmHg 91%
    09:00 +5°C° 0.4 mm 6 mps 770 mmHg 87%
    10:00 +6°C° 0.4 mm 7 mps 770 mmHg 83%
    11:00 +6°C° 0.4 mm 8 mps 770 mmHg 80%
    12:00 +6°C° 0.2 mm 9 mps 770 mmHg 79%
    13:00 +6°C° 0.2 mm 10 mps 770 mmHg 77%
    14:00 +6°C° 0.2 mm 11 mps 770 mmHg 76%
    15:00 +5°C° 0.1 mm 10 mps 771 mmHg 74%
    16:00 +5°C° 0.1 mm 10 mps 771 mmHg 72%
    17:00 +5°C° 0.1 mm 10 mps 771 mmHg 70%
    18:00 +3°C° 0 mm 9 mps 772 mmHg 71%
    19:00 +3°C° 0 mm 9 mps 772 mmHg 73%
    20:00 +2°C° 0 mm 8 mps 773 mmHg 74%
    21:00 +3°C° 0 mm 7 mps 773 mmHg 75%
    22:00 +3°C° 0 mm 7 mps 773 mmHg 76%
    23:00 +2°C° 0 mm 6 mps 773 mmHg 77%

    19 July, Thursday

    Time Temperature Precipitation Wind Pressure Humidity
    00:00 +2°C° 0 mm 6 mps 773 mmHg 78%
    01:00 +2°C° 0 mm 6 mps 774 mmHg 79%
    02:00 +2°C° 0 mm 6 mps 774 mmHg 80%
    03:00 +1°C° 0 mm 6 mps 773 mmHg 80%
    04:00 +1°C° 0 mm 6 mps 773 mmHg 81%
    05:00 +1°C° 0 mm 6 mps 773 mmHg 81%
    06:00 +1°C° 0 mm 6 mps 773 mmHg 82%
    07:00 +1°C° 0 mm 6 mps 774 mmHg 82%
    08:00 +1°C° 0 mm 6 mps 774 mmHg 82%
    09:00 +2°C° 0.1 mm 6 mps 774 mmHg 76%
    10:00 +3°C° 0.1 mm 7 mps 774 mmHg 69%
    11:00 +4°C° 0.1 mm 7 mps 774 mmHg 62%
    12:00 +5°C° 0.1 mm 7 mps 773 mmHg 59%
    13:00 +5°C° 0.1 mm 7 mps 772 mmHg 57%
    14:00 +5°C° 0.1 mm 7 mps 771 mmHg 55%
    15:00 +5°C° 0.1 mm 7 mps 771 mmHg 57%
    16:00 +4°C° 0.1 mm 6 mps 771 mmHg 60%
    17:00 +4°C° 0.1 mm 6 mps 771 mmHg 63%
    18:00 +3°C° 0.1 mm 6 mps 771 mmHg 66%
    19:00 +3°C° 0.1 mm 6 mps 771 mmHg 70%
    20:00 +2°C° 0.1 mm 5 mps 771 mmHg 73%
    21:00 +2°C° 0 mm 6 mps 770 mmHg 75%
    22:00 +2°C° 0 mm 6 mps 770 mmHg 76%
    23:00 +2°C° 0 mm 6 mps 769 mmHg 77%

    20 July, Friday

    Time Temperature Precipitation Wind Pressure Humidity
    00:00 +1°C° 0 mm 6 mps 769 mmHg 78%
    01:00 +1°C° 0 mm 6 mps 768 mmHg 79%
    02:00 +1°C° 0 mm 6 mps 768 mmHg 80%
    03:00 +1°C° 0 mm 6 mps 767 mmHg 80%
    04:00 -1°C° 0 mm 6 mps 767 mmHg 81%
    05:00 -1°C° 0 mm 6 mps 766 mmHg 81%
    06:00 -1°C° 0 mm 6 mps 766 mmHg 81%
    07:00 -1°C° 0 mm 6 mps 766 mmHg 81%
    08:00 -1°C° 0 mm 6 mps 765 mmHg 81%
    09:00 +1°C° 0 mm 6 mps 765 mmHg 75%
    10:00 +2°C° 0 mm 6 mps 764 mmHg 68%
    11:00 +3°C° 0 mm 6 mps 764 mmHg 62%
    12:00 +4°C° 0 mm 6 mps 763 mmHg 57%
    13:00 +4°C° 0 mm 6 mps 762 mmHg 53%
    14:00 +5°C° 0 mm 6 mps 761 mmHg 48%
    15:00 +5°C° 0 mm 5 mps 760 mmHg 49%
    16:00 +5°C° 0 mm 5 mps 760 mmHg 50%
    17:00 +4°C° 0 mm 4 mps 759 mmHg 50%
    18:00 +4°C° 0 mm 4 mps 759 mmHg 52%
    19:00 +3°C° 0 mm 4 mps 759 mmHg 54%
    20:00 +1°C° 0 mm 4 mps 758 mmHg 56%
    21:00 +1°C° 0 mm 4 mps 758 mmHg 56%
    22:00 +1°C° 0 mm 4 mps 758 mmHg 56%
    23:00 +1°C° 0 mm 4 mps 757 mmHg 56%

    21 July, Saturday

    Time Temperature Precipitation Wind Pressure Humidity
    00:00 +1°C° 0 mm 4 mps 757 mmHg 54%
    01:00 +1°C° 0 mm 5 mps 756 mmHg 52%
    02:00 +1°C° 0 mm 5 mps 756 mmHg 50%
    03:00 +1°C° 0 mm 5 mps 755 mmHg 49%
    04:00 +2°C° 0 mm 5 mps 755 mmHg 48%
    05:00 +2°C° 0 mm 6 mps 755 mmHg 47%
    06:00 +2°C° 0 mm 6 mps 755 mmHg 47%
    07:00 +2°C° 0 mm 6 mps 754 mmHg 47%
    08:00 +2°C° 0 mm 6 mps 754 mmHg 47%
    09:00 +3°C° 0 mm 6 mps 754 mmHg 47%
    10:00 +4°C° 0 mm 7 mps 754 mmHg 46%
    11:00 +6°C° 0 mm 7 mps 754 mmHg 45%
    12:00 +6°C° 0.1 mm 7 mps 754 mmHg 45%
    13:00 +8°C° 0.1 mm 6 mps 754 mmHg 45%
    14:00 +8°C° 0.1 mm 6 mps 754 mmHg 44%
    15:00 +8°C° 0 mm 7 mps 755 mmHg 45%
    16:00 +6°C° 0 mm 7 mps 755 mmHg 46%
    17:00 +6°C° 0 mm 8 mps 755 mmHg 47%
    18:00 +5°C° 0 mm 8 mps 756 mmHg 48%
    19:00 +4°C° 0 mm 7 mps 757 mmHg 50%
    20:00 +4°C° 0 mm 7 mps 757 mmHg 52%
    21:00 +3°C° 0 mm 7 mps 758 mmHg 54%
    22:00 +2°C° 0 mm 8 mps 758 mmHg 56%
    23:00 +1°C° 0 mm 8 mps 759 mmHg 58%
    Show more